Location: Kellogg
(38.0159°N, 90.0546°W)
Time: 15:23:51
(UTC+00:00)

Courier 1B - Pass Details

Date: 08 September 2024
Orbit: 962 x 1208 km, 28.3° (Epoch: 07 October)

Event Time Altitude Azimuth Distance (km) Brightness Sun altitude
Rises 22:45:26 0° 236° (WSW) 4,048 11.9 17.4°
Reaches altitude 10° 22:48:31 10° 228° (SW) 3,108 11.2 16.8°
Maximum altitude 22:55:20 34° 167° (SSE) 1,872 9.1 15.5°
Drops below altitude 10° 23:02:12 10° 106° (ESE) 3,134 9.6 14.1°
Sets 23:05:19 0° 97° (E) 4,086 10.1 13.5°
